map of FUE home
FUE - Airport
Location
City:  Puerto del Rosario, Fuerteventura Island, Canary Islands, Spain
Near (Alt.):El Matorral
Name:Fuerteventura
Old (Alt.):El Matorral
ICAO:GCFV
IATA:FUE

Details
Type:Airport (Aerodrome, Airfield)
Use:Public/Civil
Latitude:2827'10"N (28.452717)
Longitude:1351'50"W (-13.863760)
Datum:WGS 1984
Elevation:83 ft (25 m)
Variation:4.03W (WMM2015 magnetic declination)
0.11 annual change
Runways:1
Longest:7874 × 148 ft (2400 × 45 m), paved

Time
Time Zone:UTC+0 (DST+1)
Local Time:

Weather
METAR:GCFV 151900Z 04018KT 9999 FEW035 23/19 Q1020
TAF:GCFV 151400Z 1515/1615 05018KT 9999 FEW020 TX25/1515Z TN20/1606Z
BECMG 1519/1522 35014KT
BECMG 1608/1611 05018KT

Related Locations
Nearby:
Farthest:NLK: 12327 mi / 19838 km
Norfolk Island, NF

Find:

   beyond  
but within

Other Information
Maps:
NOTAMs:
Links:
Sources:

  
  • flag of Spain
  • flag of Canary Islands
  • flag of Fuerteventura Island
  

Sectional Chart

Flight Planning
at skyvector.com

Satellite Image

Google Maps Satellite view

 

Copyright © 2004-2018 Karl L. Swartz. All rights reserved.
The Great Circle Mapper name and logo are trademarks of the Great Circle Mapper.
All other trademarks mentioned herein belong to their respective owners.
Please see credits for attibutions and further copyright information.

  Follow gcmap on Facebook Follow gcmap on Twitter Follow gcmap on Google+ GCmap on LinkedIn

hCard Microformat

Geo Microformat